Torna al catalogo

STARLINK-31898

AttivoComunicazioniVLEO
NORAD 59905·PAYLOAD·🇺🇸 United States

Lanciato May 28, 2024 da Cape Canaveral Space Force Station

Loading…

Prossimi Passaggi (prossime 24 ore)

TLE

AggiornatoSource: CelesTrak SupGP

Epoca: Sep 14, 2026, 20:49 UTC

1 59905C 24100W   26257.86784722 -.00017740  00000+0 -64268-3 0  2577
2 59905  43.0007 133.5875 0001374 267.7727 283.5458 15.27580638    10

Traccia STARLINK-31898 in tempo reale con AllMySat

Download on the App Store